Lid_Strength_Index
11 13 15 12 13 13 14 15 15 14 12 13 14 13 12 13 14 13 13 13 13 13 13 12 12 11 11 12 12 12 11 10 10 11 11 12 13 13 13 12 12 12 12 12
13 15 11 10 12 13 14 15 14 13 12 13 14 14 13 14 13 12 12 12 12 14 14 13 13 13 12 12 11 11 10 10 10 10 12 12 13 13 13 13 13 13 13 13
13 11 10 11 13 14 14 15 15 14 13 15 16 15 15 13 13 13 12 11 12 13 14 13 13 13 13 13 11 10 10 10 11 12 13 13 13 14 14 14 14 14 14 14
13 11 11 13 13 13 15 13 13 14 15 17 15 18 16 14 14 13 12 12 13 14 13 13 13 13 14 13 10 10 10 11 12 12 13 13 14 15 15 15 14 15 15 15
13 13 13 13 13 12 14 13 14 15 17 18 17 19 17 15 15 13 12 13 14 14 14 13 13 13 13 11 10 10 12 12 12 12 12 14 15 15 15 15 16 16 16 15
14 13 12 12 13 12 13 14 15 16 17 20 17 17 15 14 13 11 11 14 14 14 14 13 13 13 12 10 10 11 12 12 12 13 13 14 15 15 16 16 17 17 17 16
14 14 14 13 14 14 14 16 20 21 21 20 17 18 14 13 13 12 12 14 15 15 14 14 15 14 13 12 12 12 12 13 13 14 14 14 15 16 16 17 17 17 17 17
17 18 14 13 13 14 15 15 19 23 22 20 18 19 16 13 12 14 13 13 15 15 14 14 14 14 14 13 13 12 13 14 14 14 15 15 16 16 16 16 17 17 17 17
17 17 14 14 14 12 15 16 14 18 25 22 18 16 13 13 14 14 14 15 16 15 15 14 14 14 14 14 14 13 13 14 14 14 15 15 15 16 16 17 17 17 17 17
14 17 15 15 13 14 15 14 18 17 23 23 19 18 16 14 14 14 15 16 16 15 15 15 15 15 15 14 14 14 13 14 14 14 15 15 15 16 16 16 17 17 17 17
12 13 17 15 16 16 16 16 16 15 18 21 23 18 14 13 13 14 15 15 15 15 16 16 15 15 15 16 16 14 14 15 15 15 15 16 16 16 17 17 17 17 17 18
12 13 18 16 14 13 14 14 14 16 20 19 19 16 14 14 14 13 14 14 15 14 15 16 16 16 16 16 16 15 15 15 15 15 16 16 16 17 17 18 18 18 18 18
10 14 18 17 15 14 15 14 13 14 17 18 19 17 15 14 14 15 14 15 15 15 16 16 16 16 16 16 16 16 16 16 16 16 16 17 17 17 18 18 18 18 19 19
9 13 15 18 16 15 17 15 14 13 16 18 16 15 16 15 15 14 14 15 15 16 16 17 17 16 16 16 16 16 16 16 16 16 17 17 17 18 18 18 18 19 19 19
10 15 13 13 13 15 16 15 14 14 14 16 14 14 12 13 13 13 14 15 15 15 16 16 17 17 16 16 16 16 16 16 16 17 17 17 17 17 18 18 19 19 19 19
10 15 13 15 13 13 15 14 15 14 13 13 13 13 12 11 12 14 13 14 15 15 15 16 16 16 16 16 16 16 16 16 16 16 17 17 17 17 18 18 19 19 19 19
12 14 15 17 14 14 17 14 13 13 13 12 15 12 10 11 11 12 13 14 14 14 14 15 15 16 16 16 16 16 16 16 16 16 16 17 17 17 18 18 19 18 18 18
12 13 14 17 15 21 13 13 10 12 11 12 12 11 11 11 10 10 12 13 13 13 12 13 14 15 15 15 15 16 16 16 16 16 16 16 17 17 18 18 18 18 18 19
12 13 15 18 18 15 14 16 15 13 13 10 11 11 10 10 14 13 12 13 12 12 12 12 13 14 15 15 15 16 16 16 16 16 16 16 16 17 18 18 18 18 18 18
13 12 14 16 19 20 17 17 14 12 15 14 10 10 10 14 15 11 13 13 13 13 13 14 15 15 15 15 15 16 16 16 16 15 15 15 15 16 17 17 18 17 17 17
17 16 16 16 17 16 15 16 14 16 16 17 14 12 14 14 12 12 13 13 13 13 13 13 14 15 14 15 15 15 16 16 15 14 14 15 15 15 16 16 17 17 18 18
16 17 17 15 17 19 16 15 14 14 16 15 14 14 14 13 14 14 14 13 13 13 13 13 14 14 14 15 14 15 15 14 14 14 15 15 15 15 15 16 17 18 18 19
16 15 16 15 15 12 15 13 13 13 13 14 13 14 13 13 14 15 15 15 15 15 16 17 16 17 17 15 14 15 15 15 15 15 16 16 16 15 15 16 18 18 17 17
14 14 14 15 15 15 15 15 14 13 14 15 15 14 13 14 15 16 16 16 16 17 17 18 17 18 18 19 17 16 16 16 16 16 17 17 16 17 17 16 16 16 18 18
14 15 17 17 16 15 14 14 13 14 15 15 15 15 13 13 16 16 16 16 16 16 17 17 16 17 18 19 19 18 17 16 16 17 18 18 16 17 17 17 17 16 18 16
15 15 15 16 13 12 12 12 12 12 13 15 15 16 15 14 14 15 16 16 17 18 19 19 20 19 21 20 20 21 18 16 17 18 18 17 18 19 19 20 23 15 16 13